Meteo pe oră la Dziaduszyce

Astăzi, 5 Martie, Vineri

Timp Temperatura Precipitaţii Vânt Presiune Umiditate
00:00 +2°C° 0.6 mm 3 m/s 739 mmHg 87%
01:00 +1°C° 0 mm 3 m/s 739 mmHg 85%
02:00 +1°C° 0.6 mm 3 m/s 739 mmHg 89%
03:00 +1°C° 0.6 mm 2 m/s 739 mmHg 93%
04:00 +1°C° 0.6 mm 2 m/s 739 mmHg 97%
05:00 +1°C° 0.7 mm 2 m/s 740 mmHg 97%
06:00 +1°C° 0.7 mm 2 m/s 740 mmHg 97%
07:00 -1°C° 0.7 mm 3 m/s 740 mmHg 97%
08:00 -1°C° 0.4 mm 3 m/s 741 mmHg 95%
09:00 -2°C° 0.4 mm 4 m/s 741 mmHg 93%
10:00 -2°C° 0.4 mm 5 m/s 742 mmHg 91%
11:00 -1°C° 0.2 mm 5 m/s 742 mmHg 85%
12:00 -1°C° 0.2 mm 4 m/s 742 mmHg 80%
13:00 0°C° 0.2 mm 4 m/s 743 mmHg 74%
14:00 0°C° 0.1 mm 4 m/s 743 mmHg 70%
15:00 0°C° 0.1 mm 4 m/s 744 mmHg 66%
16:00 0°C° 0.1 mm 4 m/s 744 mmHg 62%
17:00 -1°C° 0 mm 4 m/s 745 mmHg 64%
18:00 -1°C° 0 mm 3 m/s 746 mmHg 67%
19:00 -2°C° 0 mm 2 m/s 746 mmHg 69%
20:00 -2°C° 0 mm 2 m/s 747 mmHg 69%
21:00 -2°C° 0 mm 2 m/s 748 mmHg 70%
22:00 -2°C° 0 mm 2 m/s 748 mmHg 70%
23:00 -2°C° 0 mm 2 m/s 749 mmHg 71%

Mâine, 6 Martie, Sâmbătă

Timp Temperatura Precipitaţii Vânt Presiune Umiditate
00:00 -2°C° 0 mm 2 m/s 749 mmHg 72%
01:00 -2°C° 0 mm 3 m/s 749 mmHg 74%
02:00 -2°C° 0 mm 3 m/s 750 mmHg 73%
03:00 -4°C° 0 mm 3 m/s 750 mmHg 73%
04:00 -4°C° 0 mm 3 m/s 750 mmHg 73%
05:00 -4°C° 0 mm 3 m/s 750 mmHg 75%
06:00 -4°C° 0 mm 3 m/s 751 mmHg 76%
07:00 -4°C° 0 mm 3 m/s 751 mmHg 77%
08:00 -2°C° 0 mm 3 m/s 751 mmHg 70%
09:00 -1°C° 0 mm 3 m/s 752 mmHg 62%
10:00 0°C° 0 mm 3 m/s 752 mmHg 55%
11:00 0°C° 0 mm 4 m/s 752 mmHg 53%
12:00 0°C° 0 mm 4 m/s 752 mmHg 51%
13:00 +1°C° 0 mm 4 m/s 752 mmHg 49%
14:00 +1°C° 0 mm 4 m/s 751 mmHg 50%
15:00 +1°C° 0 mm 4 m/s 751 mmHg 51%
16:00 +1°C° 0 mm 4 m/s 751 mmHg 52%
17:00 0°C° 0 mm 4 m/s 751 mmHg 57%
18:00 -1°C° 0 mm 3 m/s 751 mmHg 63%
19:00 -2°C° 0 mm 3 m/s 751 mmHg 68%
20:00 -2°C° 0 mm 3 m/s 751 mmHg 68%
21:00 -3°C° 0 mm 4 m/s 750 mmHg 68%
22:00 -3°C° 0 mm 4 m/s 750 mmHg 68%
23:00 -3°C° 0 mm 4 m/s 750 mmHg 67%

Poimâine, 7 Martie, Duminică

Timp Temperatura Precipitaţii Vânt Presiune Umiditate
00:00 -4°C° 0 mm 5 m/s 750 mmHg 67%
01:00 -4°C° 0 mm 5 m/s 750 mmHg 67%
02:00 -4°C° 0 mm 5 m/s 749 mmHg 66%
03:00 -4°C° 0 mm 5 m/s 749 mmHg 66%
04:00 -4°C° 0 mm 5 m/s 748 mmHg 66%
05:00 -4°C° 0 mm 5 m/s 748 mmHg 66%
06:00 -4°C° 0 mm 6 m/s 748 mmHg 65%
07:00 -3°C° 0 mm 6 m/s 748 mmHg 64%
08:00 -2°C° 0 mm 6 m/s 747 mmHg 62%
09:00 -1°C° 0 mm 7 m/s 747 mmHg 60%
10:00 0°C° 0 mm 7 m/s 747 mmHg 59%
11:00 0°C° 0 mm 7 m/s 746 mmHg 58%
12:00 +2°C° 0 mm 7 m/s 746 mmHg 57%
13:00 +2°C° 0 mm 7 m/s 746 mmHg 56%
14:00 +2°C° 0 mm 6 m/s 745 mmHg 57%
15:00 +2°C° 0 mm 5 m/s 744 mmHg 58%
16:00 +2°C° 0 mm 5 m/s 743 mmHg 59%
17:00 +1°C° 0 mm 4 m/s 743 mmHg 64%
18:00 0°C° 0 mm 3 m/s 743 mmHg 69%
19:00 -1°C° 0 mm 3 m/s 743 mmHg 75%
20:00 -1°C° 0 mm 3 m/s 743 mmHg 77%
21:00 -2°C° 0 mm 3 m/s 742 mmHg 79%
22:00 -2°C° 0 mm 3 m/s 742 mmHg 81%
23:00 -2°C° 0 mm 3 m/s 742 mmHg 82%

8 Martie, Luni

Timp Temperatura Precipitaţii Vânt Presiune Umiditate
00:00 -2°C° 0 mm 3 m/s 742 mmHg 82%
01:00 -2°C° 0 mm 3 m/s 742 mmHg 83%
02:00 -3°C° 0 mm 4 m/s 741 mmHg 83%
03:00 -3°C° 0 mm 4 m/s 741 mmHg 83%
04:00 -3°C° 0 mm 4 m/s 741 mmHg 83%
05:00 -4°C° 0 mm 5 m/s 741 mmHg 85%
06:00 -4°C° 0 mm 5 m/s 741 mmHg 86%
07:00 -2°C° 0 mm 5 m/s 741 mmHg 88%
08:00 -3°C° 0.1 mm 6 m/s 741 mmHg 88%
09:00 -2°C° 0.1 mm 6 m/s 741 mmHg 87%
10:00 -2°C° 0.1 mm 6 m/s 742 mmHg 87%
11:00 0°C° 0.2 mm 5 m/s 742 mmHg 82%
12:00 0°C° 0.2 mm 5 m/s 742 mmHg 77%
13:00 0°C° 0.2 mm 4 m/s 742 mmHg 72%
14:00 0°C° 0.1 mm 4 m/s 742 mmHg 68%
15:00 0°C° 0.1 mm 4 m/s 742 mmHg 63%
16:00 0°C° 0.1 mm 4 m/s 742 mmHg 58%
17:00 -1°C° 0 mm 4 m/s 743 mmHg 64%
18:00 -2°C° 0 mm 3 m/s 744 mmHg 70%
19:00 -3°C° 0 mm 2 m/s 744 mmHg 76%
20:00 -3°C° 0 mm 2 m/s 745 mmHg 78%
21:00 -3°C° 0 mm 2 m/s 745 mmHg 80%
22:00 -3°C° 0 mm 2 m/s 745 mmHg 82%
23:00 -4°C° 0 mm 2 m/s 746 mmHg 82%

9 Martie, Marţi

Timp Temperatura Precipitaţii Vânt Presiune Umiditate
00:00 -4°C° 0 mm 2 m/s 746 mmHg 83%
01:00 -4°C° 0 mm 2 m/s 746 mmHg 84%
02:00 -2°C° 0 mm 1 m/s 746 mmHg 84%
03:00 -3°C° 0 mm 1 m/s 746 mmHg 84%
04:00 -3°C° 0 mm 1 m/s 746 mmHg 85%
05:00 -3°C° 0 mm 1 m/s 746 mmHg 83%
06:00 -3°C° 0 mm 1 m/s 746 mmHg 81%
07:00 -3°C° 0 mm 1 m/s 746 mmHg 79%
08:00 -2°C° 0 mm 1 m/s 746 mmHg 72%
09:00 -1°C° 0 mm 1 m/s 747 mmHg 65%
10:00 -2°C° 0 mm 2 m/s 747 mmHg 58%
11:00 -2°C° 0 mm 2 m/s 747 mmHg 54%
12:00 -1°C° 0 mm 2 m/s 747 mmHg 49%
13:00 -1°C° 0 mm 2 m/s 747 mmHg 45%
14:00 -1°C° 0 mm 2 m/s 746 mmHg 46%
15:00 -1°C° 0 mm 2 m/s 746 mmHg 46%
16:00 -1°C° 0 mm 2 m/s 746 mmHg 46%
17:00 -1°C° 0 mm 2 m/s 746 mmHg 50%
18:00 -2°C° 0 mm 2 m/s 746 mmHg 53%
19:00 -3°C° 0 mm 2 m/s 746 mmHg 57%
20:00 -3°C° 0 mm 2 m/s 747 mmHg 56%
21:00 -3°C° 0 mm 2 m/s 747 mmHg 56%
22:00 -4°C° 0 mm 2 m/s 747 mmHg 55%
23:00 -2°C° 0 mm 1 m/s 747 mmHg 55%

10 Martie, Miercuri

Timp Temperatura Precipitaţii Vânt Presiune Umiditate
00:00 -2°C° 0 mm 1 m/s 747 mmHg 55%
01:00 -2°C° 0 mm 1 m/s 747 mmHg 55%
02:00 -2°C° 0 mm 1 m/s 747 mmHg 55%
03:00 -2°C° 0 mm 1 m/s 746 mmHg 54%
04:00 -2°C° 0 mm 1 m/s 746 mmHg 54%
05:00 -2°C° 0 mm 1 m/s 746 mmHg 54%
06:00 -2°C° 0 mm 1 m/s 747 mmHg 54%
07:00 -2°C° 0 mm 1 m/s 747 mmHg 53%
08:00 -3°C° 0 mm 2 m/s 747 mmHg 49%
09:00 -1°C° 0 mm 2 m/s 747 mmHg 44%
10:00 0°C° 0 mm 3 m/s 746 mmHg 40%
11:00 +2°C° 0 mm 2 m/s 746 mmHg 38%
12:00 +3°C° 0 mm 2 m/s 746 mmHg 37%
13:00 +4°C° 0 mm 2 m/s 746 mmHg 35%
14:00 +4°C° 0 mm 2 m/s 745 mmHg 40%
15:00 +4°C° 0 mm 2 m/s 745 mmHg 44%
16:00 +5°C° 0 mm 1 m/s 744 mmHg 49%
17:00 +3°C° 0 mm 2 m/s 744 mmHg 53%
18:00 +1°C° 0 mm 2 m/s 744 mmHg 58%
19:00 -1°C° 0 mm 2 m/s 744 mmHg 62%
20:00 -1°C° 0 mm 3 m/s 744 mmHg 65%
21:00 -1°C° 0 mm 3 m/s 744 mmHg 67%
22:00 -1°C° 0 mm 3 m/s 743 mmHg 70%
23:00 -1°C° 0 mm 3 m/s 743 mmHg 73%
Arată mai mult

Formular de consimțământ

Meteoprog și furnizorii noștri de servicii pot stoca și accesa date personale, precum cookies, identificatori de dispozitiv sau alte tehnologii similare pe dispozitivul dumneavoastră și procesa astfel de date pentru a personaliza conținutul și reclamele, dar și pentru a oferi caracteristici de social media și pentru a analiza traficul.

  • Stocarea și/sau accesarea informațiilor pe dispozitivul dumneavoastră

    Cookies, identificatori de dispozitiv sau alte informații pot fi stocate sau accesate pe dispozitiv în scopurile indicate mai sus.

  • Reclame și conținut personalizat, evaluarea reclamelor și a conținutului, informații despre audiențe și dezvoltarea produselor

    Reclamele și conținutul pot fi personalizate pe baza unui profil. Pot fi adăugate date suplimentare pentru a personaliza mai bine reclamele și conținutul. Performanța reclamelor și conținutului poate fi măsurată. Pot fi obținute informații despre utilizatorii care au văzut reclamele și conținutul. Aceste date pot fi utilizate pentru a dezvolta sau îmbunătăți experiența utilizatorilor, sistemele și software-ul.

Dând clic pe ‘Sunt de acord’, permiteți utilizarea cookie-urilor menționate, a identificatorilor de dispozitiv, balizelor web sau altor tehnologii similare. Setările pot fi modificate din browser-ul dispozitivului dumneavoastră.

În anumite scopuri, interesele legitime pot prima asupra consimțământului. Puteți citi mai multe informații în acest sens în Politica privind Confidențialitatea Datelor și Cookie.